Weather History for KLVS - October, 2012

Change the Weather History Date:

Monday, October 29, 2012

  Actual Average Record
Temperature  
Mean Temperature 52 °F -  
Max Temperature 69 °F 62 °F 81 °F (1950)
Min Temperature 37 °F 29 °F 13 °F (1991)
Degree Days  
Heating Degree Days 12    
Growing Degree Days 2 (Base 50)    
Moisture  
Dew Point 18 °F    
Average Humidity 27    
Maximum Humidity 47    
Minimum Humidity 13    
Precipitation  
Precipitation 0.00 in - - ()
Sea Level Pressure  
Sea Level Pressure 30.00 in    
Wind  
Wind Speed 6 mph (NNW)    
Max Wind Speed 13 mph    
Max Gust Speed 17 mph    
Visibility 10 miles    
Events      
Averages and records for this station are not official NWS values.
T = Trace of Precipitation, MM = Missing Value Source: NWS Daily Summary

Daily Weather History Graph

Daily Weather History Graph

Search for Another Location

Airport or City:

Trip Planner

Search our weather history database for the weather conditions in past years. The results will help you decide how hot, cold, wet, or windy it might be!

Date:

Astronomy

Oct. 29, 2012 Rise Set
Actual Time 7:20 AM MDT 6:07 PM MDT
Civil Twilight 6:53 AM MDT 6:34 PM MDT
Nautical Twilight 6:23 AM MDT 7:04 PM MDT
Astronomical Twilight 5:54 AM MDT 7:33 PM MDT
Moon 6:02 PM MDT (10/29) 7:12 AM MDT (10/29)
Length of Visible Light 11h 40m
Length of Day
10h 47m
Full, 100% of the Moon is Illuminated
Oct 29
Full
Oct 29
Full
Nov 6
Last Quarter
Nov 13
New
Nov 20
First Quarter

Hourly Weather History & Observations

Time (MDT) Temp. Windchill Dew Point Humidity Pressure Visibility Wind Dir Wind Speed Gust Speed Precip Events Conditions
12:53 AM 43.0 °F 40.3 °F 18.0 °F 37% 30.01 in 10.0 mi North 4.6 mph - N/A   Clear
1:53 AM 46.9 °F - 19.9 °F 34% 29.99 in 10.0 mi North 5.8 mph - N/A   Clear
2:53 AM 37.9 °F 33.5 °F 19.0 °F 47% 30.00 in 10.0 mi NNE 5.8 mph - N/A   Clear
3:53 AM 42.1 °F 38.4 °F 19.9 °F 41% 29.99 in 10.0 mi NNW 5.8 mph - N/A   Clear
4:53 AM 42.1 °F 39.2 °F 21.0 °F 43% 30.01 in 10.0 mi North 4.6 mph - N/A   Clear
5:53 AM 44.1 °F 42.5 °F 21.0 °F 40% 30.04 in 10.0 mi North 3.5 mph - N/A   Clear
6:53 AM 45.0 °F 41.2 °F 21.0 °F 39% 30.06 in 10.0 mi NNW 6.9 mph - N/A   Clear
7:53 AM 45.0 °F 41.8 °F 21.0 °F 39% 30.09 in 10.0 mi NW 5.8 mph - N/A   Clear
8:53 AM 50.0 °F - 21.9 °F 33% 30.10 in 10.0 mi NNW 4.6 mph - N/A   Clear
9:53 AM 57.0 °F - 23.0 °F 27% 30.06 in 10.0 mi NNW 6.9 mph - N/A   Clear
10:53 AM 61.0 °F - 21.0 °F 21% 30.03 in 10.0 mi Calm Calm - N/A   Clear
11:53 AM 64.0 °F - 21.0 °F 19% 30.02 in 10.0 mi SSW 5.8 mph - N/A   Clear
12:53 PM 66.0 °F - 19.0 °F 17% 29.99 in 10.0 mi South 5.8 mph - N/A   Clear
1:53 PM 66.9 °F - 19.0 °F 16% 29.94 in 10.0 mi South 12.7 mph 17.3 mph N/A   Clear
2:53 PM 68.0 °F - 16.0 °F 14% 29.96 in 10.0 mi SSE 11.5 mph 16.1 mph N/A   Clear
3:53 PM 68.0 °F - 15.1 °F 13% 29.93 in 10.0 mi South 5.8 mph - N/A   Clear
4:53 PM 68.0 °F - 15.1 °F 13% 29.93 in 10.0 mi SE 8.1 mph - N/A   Clear
5:53 PM 63.0 °F - 17.1 °F 17% 29.96 in 10.0 mi North 9.2 mph - N/A   Clear
6:53 PM 55.9 °F - 15.1 °F 20% 30.00 in 10.0 mi WNW 11.5 mph - N/A   Clear
7:53 PM 53.1 °F - 16.0 °F 23% 30.01 in 10.0 mi WSW 8.1 mph - N/A   Clear
8:53 PM 54.0 °F - 17.1 °F 23% 30.00 in 10.0 mi Calm Calm - N/A   Clear
9:53 PM 50.0 °F - 16.0 °F 26% 29.99 in 10.0 mi Calm Calm - N/A   Clear
10:53 PM 50.0 °F - 14.0 °F 24% 29.99 in 10.0 mi North 3.5 mph - N/A   Clear
11:53 PM 50.0 °F - 14.0 °F 24% 29.96 in 10.0 mi NNW 6.9 mph - N/A   Clear